Overview Statistics Trail Chart Weather Telemetry Raw packets
 

This is the latest recevied weather packets stored in our database for station/object WA6OOO. If no packets are shown the sender has not sent any weather packets the latest 10 day(s).

<< 107 108 109 110 111 112 113 >>
Time Temp. Humidity Pressure Rain* Wind** Luminosity Snow
1787864545 31.11° C 52% 1015.9 hPa 0 mm - 414 W/m² -
1787864245 31.67° C 53% 1015.8 hPa 0 mm - 331 W/m² -
1787863939 31.67° C 53% 1015.9 hPa 0 mm - 331 W/m² -
1787863638 31.67° C 53% 1016 hPa 0 mm - 331 W/m² -
1787863337 31.67° C 53% 1015.8 hPa 0 mm - 331 W/m² -
1787863033 31.67° C 53% 1015.9 hPa 0 mm - 331 W/m² -
1787862728 31.67° C 53% 1016 hPa 0 mm - 331 W/m² -
1787862424 31.67° C 47% 1016 hPa 0 mm - 174 W/m² -
1787862119 31.67° C 47% 1015.6 hPa 0 mm - 174 W/m² -
1787861818 31.67° C 47% 1015.7 hPa 0 mm - 133 W/m² -
1787861516 31.67° C 46% 1015.7 hPa 0 mm - 117 W/m² -
1787861212 31.67° C 48% 1015.7 hPa 0 mm - 141 W/m² -
1787860910 32.22° C 47% 1015.8 hPa 0 mm - 179 W/m² -
1787860606 32.22° C 47% 1015.6 hPa 0 mm - 181 W/m² -
1787860301 31.67° C 47% 1015.5 hPa 0 mm - 191 W/m² -
1787859996 31.67° C 48% 1015.5 hPa 0 mm - 215 W/m² -
1787859691 31.67° C 49% 1015.8 hPa 0 mm - 192 W/m² -
1787859391 31.67° C 50% 1015.6 hPa 0 mm - 208 W/m² -
1787859086 32.22° C 48% 1015.8 hPa 0 mm - 227 W/m² -
1787858782 32.22° C 49% 1015.9 hPa 0 mm - 236 W/m² -
1787858478 32.78° C 48% 1015.9 hPa 0 mm - 319 W/m² -
1787858177 32.22° C 45% 1015.9 hPa 0 mm - 389 W/m² -
1787857873 32.22° C 47% 1016 hPa 0 mm - 399 W/m² -
1787857570 31.67° C 47% 1015.8 hPa 0 mm - 419 W/m² -
1787857269 30.56° C 49% 1015.9 hPa 0 mm - 480 W/m² -

* Rain latest hour (hover to see other rain measurements)
** Current wind speed in m/s (hover to see current wind gust speed)